カタログに戻る

COSMOS 2251 DEB

運用中LEO
NORAD 34990·DEBRIS·🇷🇺 Russia

打ち上げ Jun 16, 1993 から Plesetsk Cosmodrome

Loading…

次のパス (今後24時間)

TLE

最新Source: Space-Track

元期: Sep 13, 2026, 06:07 UTC

1 34990U 93036AFN 26256.25488936  .00000631  00000-0  19621-3 0  9994
2 34990  74.0417 102.1534 0015364 102.5489 257.7387 14.42958014913059

AllMySatでCOSMOS 2251 DEBをリアルタイム追跡

Download on the App Store